Vorticity
nan nan nan nan nan nan nan nan nan nan nan nan nan nan nan nan nan nan nan nan nan nan
nan 6 7 8 8 8 9 11 10 9 9 10 9 9 8 8 8 7 8 8 9 nan
nan 7 8 8 10 10 7 10 10 10 8 7 9 8 9 11 11 9 8 8 10 nan
nan 9 10 8 9 9 11 12 13 12 11 9 8 8 7 9 8 9 9 9 8 nan
nan 9 8 8 9 11 9 10 12 10 16 14 10 11 8 7 8 8 6 7 8 nan
nan 8 8 9 8 12 14 11 5 4 7 13 12 9 7 10 8 6 9 8 7 nan
nan 9 9 10 10 12 10 8 4 3 4 11 7 7 11 8 8 9 9 9 9 nan
nan 10 10 12 11 11 10 4 2 7 2 8 13 11 14 10 8 7 9 9 9 nan
nan 11 11 10 12 8 11 13 5 1 7 9 12 17 13 6 7 10 8 8 9 nan
nan 9 11 11 10 11 9 7 10 6 11 17 14 15 11 5 6 9 8 9 10 nan
nan 12 10 11 13 11 10 7 6 10 11 13 17 16 10 6 4 9 11 10 9 nan
nan 11 11 12 11 10 11 7 6 11 12 10 15 15 8 4 6 11 11 10 11 nan
nan 12 11 12 9 10 11 9 10 11 9 11 13 12 7 5 9 9 9 11 15 nan
nan nan nan nan nan nan nan nan nan nan nan nan nan nan nan nan nan nan nan nan nan nan
CAPE
914 1633 1268 1394 1273 1190 1507 1593 1295 1101 950 847 748 304 371 0 57 0 0 0 0 0
851 1128 1745 2019 1715 1768 350 725 1517 1229 1039 447 470 266 175 15 34 0 0 0 0 0
1341 1339 1349 1921 1864 1682 474 446 1615 1238 569 521 175 253 44 0 0 0 0 0 0 0
2073 1876 1814 1590 1727 1910 1600 1414 1493 722 442 337 270 237 31 0 0 0 0 0 0 0
2170 2344 2067 2025 2338 2060 1698 1401 365 98 125 236 288 120 2 0 0 0 0 0 0 0
1983 2320 2430 2202 2037 2577 1464 482 0 0 194 701 454 60 0 0 0 0 0 0 0 0
2209 2281 2450 2522 2024 2382 1226 113 0 0 0 353 582 358 16 0 0 0 0 0 0 0
2241 2379 2387 2307 2114 2233 1315 142 0 0 0 0 102 309 7 0 0 0 0 0 0 0
2170 2296 2315 2190 2365 2243 1118 858 16 2 0 0 92 335 5 0 0 0 0 0 0 0
2257 2403 2304 2406 2443 1821 353 402 129 0 45 12 157 133 4 0 0 0 0 0 0 0
2448 2429 2219 1992 1982 1352 177 1 0 0 117 371 255 67 1 0 0 0 0 0 0 0
2425 1770 1302 1226 1104 655 37 0 25 98 120 53 73 9 0 0 0 0 0 0 0 0
1542 1296 875 689 313 155 47 35 80 54 10 1 9 0 0 0 0 0 0 0 0 0
1058 853 522 93 20 1 0 5 218 23 1 0 0 0 0 0 0 0 0 0 0 0